Location: Hyderabad
(17.3833°N, 78.4667°E)
Time: 07:16:24
(UTC+05:30)

H-2A R/B - Pass Details

Date: 22 December 2017
Orbit: 253 x 32991 km, 28.1° (Epoch: 24 April)

Event Time Altitude Azimuth Distance (km) Brightness Sun altitude
Rises 00:43:37 0° 284° (WNW) 10,651 7.7 -80.9°
Reaches altitude 10° 00:49:16 10° 286° (WNW) 11,196 7.7 -79.9°
Enters shadow 01:23:54 43° 294° (WNW) 16,521 8.2 -72.7°
Exits shadow 02:51:48 57° 294° (WNW) 27,957 9.2 -52.8°
Maximum altitude 02:54:35 57° 294° (WNW) 28,217 9.2 -52.1°
Drops below altitude 10° 09:33:09 10° 196° (SSW) 6,690 7.3 33.2°
Sets 09:38:27 0° 177° (S) 5,977 7.2 34.1°
